Date,TemperatureHighF,TemperatureAvgF,TemperatureLowF,DewpointHighF,DewpointAvgF,DewpointLowF,HumidityHigh,HumidityAvg,HumidityLow,PressureMaxIn,PressureMinIn,WindSpeedMaxMPH,WindSpeedAvgMPH,GustSpeedMaxMPH,PrecipitationSumIn
2013-1-1,37.1,29.8,22.8,26.8,23.1,19.0,88,76,61,30.39,30.14,19,5,19,0.00
2013-1-2,45.9,30.9,18.7,27.3,22.3,15.7,95,72,43,30.43,30.29,13,2,13,0.01
2013-1-3,46.6,31.6,21.9,26.8,21.8,18.6,95,70,37,30.58,30.43,11,1,11,0.00
2013-1-4,44.6,35.8,25.4,31.5,27.1,21.2,89,71,52,30.55,30.34,16,2,16,0.00
2013-1-5,54.1,41.8,32.4,31.8,26.9,18.0,82,59,28,30.40,30.19,18,4,18,0.00
2013-1-6,54.6,37.6,25.0,28.8,23.9,20.3,83,61,31,30.50,30.35,8,1,8,0.00
2013-1-7,51.5,37.2,23.2,30.8,24.8,18.1,85,63,38,30.36,30.10,14,1,14,0.00
2013-1-8,52.9,43.8,32.2,41.9,35.6,26.3,85,73,61,30.18,30.03,8,1,11,0.00
2013-1-9,49.3,44.2,41.6,47.1,39.6,34.2,92,84,73,30.30,30.04,20,7,28,0.56
2013-1-10,54.7,48.6,46.0,49.1,45.6,42.7,93,89,76,30.04,29.83,15,3,15,0.15
2013-1-11,70.1,55.1,42.7,51.0,44.6,35.0,88,69,47,29.86,29.66,23,5,23,0.00
2013-1-12,51.9,39.2,26.6,35.3,25.3,17.2,76,58,43,30.15,29.81,27,8,27,0.00
2013-1-13,34.7,26.9,18.9,20.4,14.9,12.0,83,62,41,30.42,30.14,22,5,22,0.00
2013-1-14,38.4,27.3,16.2,18.6,14.0,10.7,84,60,34,30.48,30.33,16,3,16,0.00
2013-1-15,38.7,29.4,20.0,20.4,16.7,13.1,80,61,35,30.38,30.28,13,3,17,0.00
2013-1-16,53.1,33.8,17.8,31.2,22.2,13.7,85,66,30,30.35,30.21,17,2,17,0.00
2013-1-17,57.2,41.4,30.2,34.1,29.6,25.2,83,65,39,30.59,30.33,13,2,13,0.00
2013-1-18,61.9,44.1,25.5,34.7,30.3,22.0,89,62,35,30.53,30.19,19,4,19,0.00
2013-1-19,63.8,46.5,32.8,37.5,33.0,27.1,83,62,35,30.25,30.10,12,1,12,0.00
2013-1-20,65.1,43.2,26.2,37.1,30.9,22.1,92,65,31,30.26,30.09,12,1,12,0.00
2013-1-21,46.3,34.9,24.3,33.5,18.2,11.7,78,52,32,30.45,30.23,25,5,25,0.00
2013-1-22,63.7,40.9,19.4,41.9,29.1,15.9,87,66,37,30.34,30.15,17,2,17,0.00
2013-1-23,68.4,46.6,28.3,48.6,37.9,25.5,91,74,46,30.26,30.08,13,1,13,0.00
2013-1-24,43.2,37.9,33.6,35.9,32.5,28.6,92,81,69,30.28,30.12,18,3,18,0.00
2013-1-25,51.9,38.7,28.1,34.5,29.4,24.0,86,70,47,30.32,30.14,13,2,13,0.00
2013-1-26,58.4,42.0,24.9,43.0,33.4,22.0,91,73,48,30.27,30.02,15,1,15,0.00
2013-1-27,77.9,63.1,48.7,56.0,52.2,43.1,92,70,42,30.02,29.74,24,6,24,0.00
2013-1-28,80.0,65.7,53.8,61.0,52.7,46.9,87,65,36,29.87,29.65,26,4,26,0.00
2013-1-29,68.0,58.2,40.1,60.0,41.0,25.0,86,56,28,29.74,29.48,44,8,44,0.00
2013-1-30,51.1,40.1,28.5,31.3,22.0,13.4,76,51,23,30.14,29.74,25,8,25,0.00
2013-1-31,65.7,41.6,23.9,30.9,22.5,15.3,77,51,18,30.39,30.08,27,3,27,0.00
2013-2-1,52.7,35.7,18.8,28.2,21.4,13.2,81,58,35,30.44,30.13,16,2,17,0.00
2013-2-2,64.7,43.7,27.6,36.2,27.9,22.9,84,58,25,30.37,30.16,17,2,17,0.00
2013-2-3,68.2,48.8,26.3,34.2,25.8,18.4,84,48,15,30.37,29.89,23,3,23,0.00
2013-2-4,69.0,56.6,34.8,48.8,36.6,25.9,75,50,20,29.95,29.77,21,4,21,0.00
2013-2-5,68.8,48.5,27.4,51.2,34.5,22.6,89,64,24,30.07,29.93,18,2,18,0.00
2013-2-6,73.5,60.0,52.1,55.1,51.8,48.7,93,77,46,30.02,29.73,18,3,18,0.00
2013-2-7,63.2,53.7,38.1,54.8,43.2,27.8,89,69,37,30.23,29.70,30,8,30,0.00
2013-2-8,58.4,42.8,24.7,32.5,24.5,15.9,92,54,20,30.35,30.13,15,2,15,0.00
2013-2-9,56.9,49.5,42.3,53.2,41.5,24.9,89,74,48,30.13,29.63,24,6,26,0.04
2013-2-10,63.7,50.5,35.7,43.3,25.5,18.9,64,40,19,30.05,29.73,20,5,20,0.00
2013-2-11,55.8,43.0,30.7,30.8,26.0,22.0,77,54,30,30.24,30.05,16,2,16,0.00
2013-2-12,44.9,37.9,33.4,36.9,33.8,29.5,96,86,60,30.16,29.94,25,6,25,0.87
2013-2-13,58.4,41.0,27.6,39.5,32.0,24.7,91,73,37,30.19,30.00,11,1,11,0.01
2013-2-14,63.9,45.5,27.6,39.9,32.0,24.7,90,65,28,30.25,30.00,28,5,28,0.00
2013-2-15,46.4,39.1,32.3,36.1,27.0,21.9,78,63,43,30.48,30.25,23,5,28,0.00
2013-2-16,57.6,40.6,26.8,35.0,28.8,22.3,91,66,34,30.47,30.10,14,2,20,0.00
2013-2-17,73.7,52.2,27.5,33.2,28.1,21.4,86,46,14,30.10,29.71,23,6,23,0.00
2013-2-18,60.6,52.1,34.4,45.3,32.9,24.4,76,50,27,30.15,29.61,31,9,32,0.00
2013-2-19,57.7,43.0,26.2,31.6,25.1,21.6,85,54,26,30.35,30.13,21,4,21,0.00
2013-2-20,49.9,40.4,35.4,38.6,36.5,28.8,91,86,44,30.14,29.75,36,11,36,0.37
2013-2-21,51.2,37.3,27.6,41.2,32.3,21.0,92,83,65,30.10,29.71,30,7,30,0.29
2013-2-22,42.7,31.6,22.5,27.4,21.9,16.9,80,68,50,30.25,30.07,14,3,15,0.00
2013-2-23,50.2,36.5,24.3,35.0,28.1,20.9,90,73,52,30.17,29.87,14,2,15,0.00
2013-2-24,68.0,49.4,33.5,46.3,37.9,28.9,89,67,44,29.87,29.57,27,6,27,0.40
2013-2-25,43.7,37.5,32.9,41.0,34.9,29.8,92,90,82,29.87,29.49,34,13,35,0.85
2013-2-26,49.7,38.8,29.5,34.6,30.0,24.7,85,71,53,29.98,29.85,23,6,23,0.00
2013-2-27,51.2,39.9,29.2,33.7,28.1,23.8,85,65,39,30.32,29.97,30,8,30,0.00
2013-2-28,56.4,39.8,25.8,30.7,25.8,21.3,88,62,26,30.39,30.25,22,4,22,0.00
2013-3-1,54.9,39.7,27.7,34.9,29.3,23.4,92,68,41,30.43,30.26,28,4,28,0.00
2013-3-2,64.4,42.9,24.9,39.5,31.3,21.9,89,67,34,30.50,30.19,14,1,14,0.00
2013-3-3,80.5,56.9,29.6,38.6,31.3,26.5,89,46,15,30.19,29.57,27,5,27,0.00
2013-3-4,79.3,63.2,45.6,44.0,35.7,26.4,67,38,20,30.10,29.53,38,9,38,0.00
2013-3-5,55.4,43.4,28.7,34.0,21.0,12.3,76,44,19,30.46,30.10,30,7,36,0.00
2013-3-6,56.3,40.5,23.4,27.6,23.4,19.2,87,55,28,30.51,30.18,16,3,16,0.00
2013-3-7,73.3,55.5,39.5,43.3,29.4,22.2,55,39,23,30.18,29.97,22,5,22,0.00
2013-3-8,64.2,59.4,54.3,57.0,51.4,43.4,82,75,56,30.02,29.80,30,8,30,0.00
2013-3-9,73.5,64.1,58.0,60.0,45.5,26.2,88,57,20,29.80,29.58,38,6,38,0.05
2013-3-10,57.8,44.7,36.1,37.6,26.8,19.6,65,50,31,30.15,29.73,33,13,36,0.00
2013-3-11,67.0,45.0,23.5,33.2,25.2,16.6,78,49,24,30.17,29.94,12,3,12,0.00
2013-3-12,62.4,49.1,37.8,38.8,31.4,25.0,81,52,32,30.36,29.94,25,7,25,0.00
2013-3-13,68.7,48.7,29.9,40.3,34.2,27.1,92,62,30,30.48,30.27,17,1,17,0.00
2013-3-14,79.8,60.4,37.2,44.7,39.7,32.8,84,50,25,30.28,30.05,15,3,15,0.00
2013-3-15,87.3,68.7,49.1,44.9,41.1,36.6,67,40,17,30.06,29.70,19,5,19,0.00
2013-3-16,78.7,65.3,51.7,52.9,44.7,39.1,65,48,31,29.76,29.62,25,6,25,0.00
2013-3-17,61.4,50.0,39.4,42.2,37.4,32.1,75,62,47,29.89,29.63,24,6,25,0.00
2013-3-18,63.4,52.7,41.6,40.7,35.4,26.8,86,55,25,30.02,29.60,23,6,23,0.00
2013-3-19,61.7,51.0,36.3,43.9,35.8,28.0,79,57,46,30.21,29.97,19,3,19,0.00
2013-3-20,63.7,50.5,34.0,39.4,32.4,25.1,86,55,26,30.38,29.95,15,1,15,0.00
2013-3-21,82.0,62.7,49.6,53.3,41.3,28.5,75,47,27,29.95,29.36,26,6,26,0.00
2013-3-22,56.9,45.2,39.6,48.0,37.3,34.8,87,74,63,29.90,29.47,28,8,28,0.00
2013-3-23,52.7,45.5,38.1,44.5,39.1,30.3,87,78,72,30.03,29.66,27,5,27,0.00
2013-3-24,48.7,38.2,29.9,30.4,20.9,14.0,75,53,26,30.29,30.02,30,10,30,0.00
2013-3-25,51.4,36.0,19.4,22.5,16.4,13.8,80,49,24,30.50,30.29,23,4,23,0.00
2013-3-26,61.2,40.2,17.9,24.4,18.9,13.1,84,48,19,30.54,30.20,20,3,20,0.00
2013-3-27,76.5,57.8,42.9,43.5,33.2,24.3,57,41,26,30.21,29.93,28,7,28,0.00
2013-3-28,78.0,63.6,52.2,52.6,48.1,42.8,74,59,38,30.07,29.92,25,4,25,0.00
2013-3-29,79.8,64.7,54.2,59.6,54.6,49.5,89,71,45,30.06,29.88,18,3,20,0.00
2013-3-30,82.3,67.2,51.4,60.0,55.6,48.3,91,69,43,29.95,29.79,15,2,15,0.00
2013-3-31,71.3,62.4,50.4,58.7,48.1,41.3,88,62,36,30.04,29.79,40,5,40,0.00
2013-4-1,79.7,58.6,42.0,55.0,45.8,37.5,86,65,38,30.07,29.88,24,4,24,0.08
2013-4-2,46.1,40.7,38.6,40.3,36.9,33.8,91,86,77,30.15,30.02,21,9,21,0.07
2013-4-3,40.8,39.0,37.6,38.4,36.6,35.0,92,91,88,30.27,30.13,18,6,18,0.23
2013-4-4,50.8,41.6,37.3,40.4,36.3,34.2,92,82,67,30.30,30.18,13,4,13,0.01
2013-4-5,69.5,50.7,30.8,48.5,40.5,28.2,92,71,43,30.27,29.88,22,3,22,0.00
2013-4-6,79.6,65.3,53.3,52.7,48.6,45.5,78,57,34,29.88,29.75,22,3,22,0.00
2013-4-7,85.7,68.3,54.0,62.9,57.3,48.6,91,70,41,29.79,29.49,27,5,27,0.00
2013-4-8,87.5,73.8,64.0,64.4,61.6,58.7,83,67,41,29.56,29.40,29,9,29,0.00
2013-4-9,84.3,61.5,33.6,63.8,51.1,28.3,92,70,37,29.92,29.46,36,12,36,0.18
2013-4-10,48.4,36.3,28.7,31.8,28.6,23.9,87,75,47,30.15,29.83,38,5,38,0.37
2013-4-11,61.9,44.6,28.9,39.9,30.5,22.5,87,61,33,30.06,29.78,15,3,15,0.00
2013-4-12,67.3,53.0,40.5,46.8,41.4,36.3,86,67,44,30.04,29.83,17,3,17,0.00
2013-4-13,75.8,62.5,51.5,50.0,44.7,40.3,74,55,30,29.92,29.63,22,6,24,0.00
2013-4-14,92.2,71.5,55.9,55.0,47.5,31.6,77,49,12,29.65,29.36,22,7,23,0.00
2013-4-15,79.3,65.4,51.5,55.1,47.6,39.5,79,54,36,29.69,29.46,21,5,21,0.00
2013-4-16,61.7,54.3,47.0,51.0,45.8,41.2,87,74,62,29.93,29.67,17,7,21,0.00
2013-4-17,81.8,60.1,47.9,70.0,55.6,44.3,91,86,66,29.83,29.42,30,5,30,0.62
2013-4-18,53.9,45.2,38.0,44.2,32.2,27.0,90,62,37,30.22,29.69,37,13,37,0.02
2013-4-19,68.3,49.6,31.2,42.4,26.9,19.3,71,46,17,30.33,30.06,18,4,18,0.00
2013-4-20,72.5,58.5,46.2,36.0,32.2,29.2,57,39,24,30.08,29.85,33,9,33,0.00
2013-4-21,73.3,60.6,47.7,51.3,44.5,33.4,77,57,41,30.09,29.94,22,5,22,0.00
2013-4-22,86.0,77.0,52.6,59.9,56.5,47.0,82,51,35,29.95,29.60,28,8,28,0.00
2013-4-23,72.3,42.5,35.7,56.5,34.2,27.6,86,73,56,30.35,29.63,34,12,34,0.00
2013-4-24,60.7,45.2,28.5,35.2,29.5,23.8,85,57,31,30.42,30.24,19,3,19,0.00
2013-4-25,71.5,54.2,31.4,42.1,33.7,27.2,88,52,21,30.37,30.03,21,2,21,0.00
2013-4-26,86.1,69.2,60.1,60.3,50.9,35.8,79,54,19,30.10,29.78,27,8,27,0.00
2013-4-27,79.5,63.9,53.5,54.3,50.5,45.8,88,65,32,30.14,29.97,22,5,22,0.00
2013-4-28,90.2,68.7,47.3,53.0,46.6,39.6,90,53,19,30.01,29.72,21,2,21,0.00
2013-4-29,92.3,76.3,58.5,58.7,47.4,35.3,71,42,15,29.79,29.60,26,6,26,0.00
2013-4-30,91.2,76.8,63.1,61.5,57.6,50.4,78,55,26,29.67,29.53,20,8,26,0.00
2013-5-1,88.1,69.0,45.2,64.5,55.6,37.0,82,64,40,30.15,29.60,34,9,34,0.00
2013-5-2,53.7,44.6,38.6,37.0,33.6,28.1,85,67,39,30.49,30.14,35,14,35,0.04
2013-5-3,71.7,51.9,32.0,30.5,25.8,18.4,79,44,14,30.47,29.99,31,4,31,0.00
2013-5-4,73.5,54.9,33.2,38.9,27.5,11.7,79,43,10,30.08,29.93,25,5,26,0.00
2013-5-5,73.4,55.1,38.1,47.5,41.5,33.1,84,63,37,30.22,30.04,15,2,15,0.00
2013-5-6,77.6,62.8,43.5,50.6,46.7,39.6,89,59,34,30.14,29.96,13,1,13,0.00
2013-5-7,86.6,71.1,54.1,51.1,47.6,44.8,78,47,24,30.03,29.79,30,3,30,0.00
2013-5-8,87.0,74.6,58.9,63.8,57.0,47.9,73,55,39,29.84,29.64,30,6,30,0.00
2013-5-9,84.9,69.4,58.9,64.2,59.8,53.4,91,73,40,29.90,29.73,21,3,21,0.07
2013-5-10,75.2,64.7,56.6,58.1,54.6,51.1,89,71,48,30.10,29.85,27,5,27,0.24
2013-5-11,82.5,65.6,47.7,56.8,49.6,41.6,94,62,24,30.23,30.09,22,3,22,0.01
2013-5-12,83.6,66.4,44.7,48.2,43.7,36.6,87,50,25,30.28,30.01,19,3,19,0.00
2013-5-13,93.8,77.1,56.9,49.2,43.7,35.3,68,35,14,30.12,29.96,29,5,29,0.00
2013-5-14,91.8,78.8,62.7,57.8,49.9,40.0,60,38,23,30.02,29.78,25,6,25,0.00
2013-5-15,86.6,73.3,65.7,65.0,59.6,47.4,86,64,34,29.85,29.63,22,4,25,0.06
2013-5-16,84.5,69.9,61.4,64.0,60.4,57.8,89,74,46,29.78,29.67,17,4,17,0.00
2013-5-17,93.2,77.0,65.7,73.4,67.9,60.8,93,76,50,29.78,29.64,24,5,24,0.00
2013-5-18,101.3,83.4,70.7,70.6,66.6,57.9,89,62,26,29.72,29.46,27,5,27,0.44
2013-5-19,98.9,86.0,74.6,68.7,50.8,26.2,73,39,8,29.59,29.45,35,8,35,0.00
2013-5-20,97.8,80.8,65.2,63.6,48.7,31.5,74,37,10,29.67,29.50,27,4,27,0.00
2013-5-21,78.4,69.3,56.5,63.3,52.5,45.9,84,57,32,29.89,29.64,21,6,28,0.31
2013-5-22,91.0,73.6,52.4,55.7,49.3,41.8,90,50,19,29.90,29.72,21,3,23,0.00
2013-5-23,88.3,75.5,64.4,68.0,62.8,50.7,82,66,41,29.98,29.71,33,8,33,0.00
2013-5-24,92.7,77.2,64.9,71.2,64.3,58.9,87,67,37,30.05,29.90,25,6,25,0.00
2013-5-25,87.9,75.6,65.2,67.1,62.9,57.7,81,66,45,30.08,29.86,21,4,22,0.00
2013-5-26,95.0,82.3,69.9,68.7,64.9,60.5,84,59,32,29.95,29.72,25,8,25,0.00
2013-5-27,96.5,83.6,72.2,68.3,65.9,63.2,76,57,36,29.79,29.54,32,10,32,0.00
2013-5-28,82.4,78.4,75.7,69.8,66.6,64.7,77,67,60,29.68,29.51,26,6,26,0.00
2013-5-29,87.4,79.7,72.9,68.4,66.4,64.3,76,65,47,29.64,29.40,43,9,43,0.02
2013-5-30,100.5,86.3,75.4,71.3,59.1,30.8,76,47,9,29.60,29.47,30,8,30,0.00
2013-5-31,104.7,89.2,71.9,69.8,62.6,36.6,76,47,11,29.63,29.39,29,6,29,0.00
2013-6-1,90.3,78.5,67.0,67.7,51.2,41.3,79,43,19,29.98,29.48,32,7,32,0.00
2013-6-2,87.1,72.2,55.7,53.5,48.7,45.1,80,47,25,30.10,29.88,18,3,18,0.00
2013-6-3,96.2,79.8,64.8,60.2,55.4,49.5,65,45,29,29.95,29.65,21,5,21,0.00
2013-6-4,100.3,84.5,68.8,67.7,63.4,56.0,78,51,34,29.79,29.59,30,8,30,0.00
2013-6-5,91.1,80.5,71.2,67.3,64.6,59.7,78,59,45,29.87,29.64,27,8,27,0.00
2013-6-6,81.3,72.1,63.8,64.9,60.7,57.6,91,69,47,29.94,29.81,24,6,27,1.00
2013-6-7,86.9,73.5,58.7,62.4,57.4,51.9,90,61,36,29.99,29.82,14,1,14,0.00
2013-6-8,90.6,77.7,65.6,60.1,56.9,51.0,80,51,29,29.87,29.62,47,6,47,0.07
2013-6-9,94.2,77.4,62.4,67.1,61.6,55.7,91,63,28,29.92,29.73,26,1,47,0.32
2013-6-10,99.9,85.1,68.6,68.4,61.3,51.4,82,50,20,29.87,29.75,22,5,22,0.00
2013-6-11,98.1,86.2,71.5,67.5,60.1,54.5,63,43,26,29.89,29.74,24,4,24,0.00
2013-6-12,98.5,87.0,74.6,67.4,65.1,62.1,73,50,32,29.91,29.75,23,5,23,0.00
2013-6-13,100.5,87.6,73.6,70.2,65.7,61.5,74,51,30,29.95,29.77,18,2,18,0.00
2013-6-14,94.1,83.8,71.6,68.0,63.1,58.3,76,52,32,29.90,29.81,20,3,22,0.00
2013-6-15,88.0,78.8,69.1,70.8,65.6,62.6,88,65,47,29.99,29.79,23,3,23,0.29
2013-6-16,97.2,84.5,70.1,71.6,68.3,65.0,86,61,38,29.95,29.73,23,3,23,0.00
2013-6-17,94.0,80.7,67.3,69.7,65.1,61.5,88,62,37,29.93,29.73,50,2,50,0.10
2013-6-18,91.3,79.7,69.2,66.8,64.9,61.5,88,63,40,29.97,29.84,0,0,0,0.00
2013-6-19,85.4,75.0,69.5,69.7,65.9,61.3,90,74,46,30.02,29.74,0,0,0,0.25
2013-6-20,96.7,83.8,69.0,72.2,66.4,62.6,84,59,35,29.89,29.76,5,0,5,0.00
2013-6-21,95.8,86.6,77.3,72.1,66.8,61.9,69,53,35,29.90,29.77,8,0,8,0.00
2013-6-22,96.8,87.2,76.7,68.3,63.6,59.6,61,46,33,29.86,29.69,0,0,0,0.00
2013-6-23,99.2,87.8,78.5,65.9,60.2,54.8,62,42,24,29.78,29.68,0,0,0,0.00
2013-6-24,96.5,86.4,75.9,66.6,62.9,57.4,62,46,32,29.85,29.70,0,0,0,0.00
2013-6-25,101.4,89.3,77.8,71.4,67.3,60.4,67,50,35,29.79,29.61,21,3,23,0.00
2013-6-26,104.5,92.3,78.8,71.6,66.2,59.9,63,43,29,29.76,29.66,22,5,22,0.00
2013-6-27,107.2,92.2,75.7,69.0,64.5,57.0,71,44,20,29.94,29.71,38,3,38,0.00
2013-6-28,102.8,89.8,75.7,64.1,60.5,55.2,64,40,22,29.94,29.78,22,5,32,0.00
2013-6-29,101.2,85.8,69.9,64.7,58.7,55.7,70,43,24,29.92,29.74,17,3,17,0.01
2013-6-30,94.2,82.0,70.8,63.6,55.9,51.5,74,43,26,29.93,29.82,18,4,18,0.00
2013-7-1,87.3,75.3,60.0,55.3,51.3,46.5,74,46,28,30.07,29.93,22,4,22,0.00
2013-7-2,91.3,74.8,54.7,51.7,46.3,39.3,77,42,18,30.13,29.96,14,2,14,0.00
2013-7-3,94.0,75.8,55.5,51.3,46.8,43.7,71,40,19,30.04,29.85,14,1,15,0.00
2013-7-4,96.5,82.8,68.2,59.1,50.9,47.5,69,36,20,29.93,29.76,18,3,18,0.00
2013-7-5,100.1,85.9,68.8,60.1,53.9,46.3,65,37,18,29.88,29.70,26,4,26,0.00
2013-7-6,100.1,87.3,75.9,61.0,56.1,49.4,54,36,19,29.83,29.71,23,4,25,0.00
2013-7-7,100.0,88.0,75.1,63.5,59.6,55.6,60,40,26,29.90,29.80,21,2,21,0.00
2013-7-8,102.3,88.8,72.8,68.9,63.5,59.9,71,45,27,29.95,29.82,18,3,18,0.00
2013-7-9,101.7,91.0,77.6,67.3,63.9,60.4,65,43,28,29.97,29.81,19,6,24,0.00
2013-7-10,102.8,91.1,77.2,65.0,61.4,58.9,58,39,25,29.95,29.78,13,2,24,0.00
2013-7-11,107.0,90.2,78.7,67.4,62.2,59.0,57,41,22,29.88,29.74,21,2,21,0.00
2013-7-12,105.3,91.5,76.1,67.7,63.7,59.0,70,43,23,29.86,29.74,19,2,20,0.00
2013-7-13,107.0,93.2,76.7,66.5,60.8,53.0,68,38,18,29.89,29.72,15,2,16,0.00
2013-7-14,89.3,75.9,64.7,64.0,61.2,57.1,90,63,42,30.01,29.77,31,5,31,0.32
2013-7-15,77.8,68.9,63.5,65.8,62.2,59.8,92,80,60,30.06,29.96,15,2,16,0.02
2013-7-16,75.4,70.5,67.6,70.5,67.5,64.9,92,90,83,30.18,30.01,19,2,19,1.82
2013-7-17,86.4,74.1,69.1,72.6,69.3,66.3,92,85,59,30.24,30.12,18,2,18,0.07
2013-7-18,90.2,78.9,67.7,71.1,68.1,65.0,92,72,47,30.16,29.95,16,2,19,0.01
2013-7-19,94.1,82.2,68.5,69.8,67.0,63.7,90,63,38,30.00,29.82,17,2,17,0.00
2013-7-20,96.6,85.0,72.6,69.5,66.3,61.5,84,57,32,29.89,29.73,17,2,17,0.00
2013-7-21,97.7,86.4,72.9,68.4,66.6,64.0,82,54,35,29.82,29.71,15,4,21,0.00
2013-7-22,96.8,86.9,76.0,73.1,69.7,67.3,76,58,40,29.84,29.71,19,4,20,0.00
2013-7-23,98.9,88.8,77.3,73.3,70.7,68.4,76,57,40,29.83,29.68,20,4,20,0.00
2013-7-24,97.4,86.4,74.8,71.5,69.1,64.9,78,58,41,29.91,29.73,29,4,41,0.00
2013-7-25,85.9,79.4,70.8,74.4,71.0,66.5,90,76,64,30.03,29.88,19,2,19,0.38
2013-7-26,88.2,80.3,74.1,74.2,69.8,65.0,90,72,49,30.01,29.83,23,5,23,0.15
2013-7-27,91.9,79.5,67.4,69.3,65.2,60.8,91,65,38,30.02,29.83,15,1,15,0.00
2013-7-28,91.3,79.6,66.5,67.3,63.9,57.0,90,62,35,29.92,29.77,19,3,19,0.00
2013-7-29,97.0,86.1,76.1,75.1,69.9,65.6,77,60,44,29.84,29.72,20,2,21,0.00
2013-7-30,101.0,87.8,76.1,72.8,69.6,66.2,74,56,38,29.93,29.78,12,0,12,0.00
2013-7-31,99.0,86.1,74.9,74.4,69.7,55.0,87,62,25,30.01,29.88,17,2,17,0.00
2013-8-1,97.2,85.1,72.9,73.1,69.2,65.8,85,61,38,30.01,29.83,18,4,18,0.00
2013-8-2,104.5,91.2,78.7,71.0,66.1,60.1,76,48,25,29.86,29.68,26,7,26,0.00
2013-8-3,104.3,91.2,78.0,65.2,63.0,58.1,60,41,23,29.88,29.74,22,7,22,0.00
2013-8-4,102.6,90.1,77.8,67.2,64.6,61.7,65,45,27,29.94,29.79,23,6,23,0.00
2013-8-5,104.3,91.4,78.3,68.2,64.5,61.1,68,44,26,29.88,29.67,21,7,23,0.00
2013-8-6,106.7,92.7,76.4,67.7,62.1,56.6,60,38,21,29.77,29.60,21,7,21,0.00
2013-8-7,99.8,89.0,73.4,69.8,66.2,62.2,83,49,32,29.79,29.64,37,5,37,0.07
2013-8-8,100.5,81.9,71.6,72.5,68.4,65.8,88,67,35,29.83,29.66,30,5,30,0.04
2013-8-9,91.3,79.8,68.3,69.7,66.9,64.2,88,67,44,30.00,29.81,20,5,20,0.00
2013-8-10,90.3,79.3,69.8,67.9,65.9,63.6,87,65,43,30.09,29.95,16,5,19,0.00
2013-8-11,99.8,82.7,66.9,70.3,67.0,62.5,88,62,35,30.05,29.87,25,4,25,0.14
2013-8-12,101.0,83.1,73.2,73.2,69.8,65.2,91,68,34,29.99,29.82,25,5,25,0.03
2013-8-13,90.2,79.9,72.4,72.6,69.1,66.8,87,71,50,29.99,29.86,17,4,17,0.01
2013-8-14,90.0,79.4,71.5,69.3,67.1,64.5,89,68,46,30.05,29.90,15,5,17,0.00
2013-8-15,92.3,80.5,70.7,73.0,67.7,63.2,84,66,47,29.99,29.86,17,4,21,0.00
2013-8-16,91.2,76.7,63.7,68.4,64.2,58.0,89,67,43,30.04,29.90,30,5,30,0.39
2013-8-17,89.0,77.3,66.8,67.8,64.3,62.2,87,66,46,30.07,29.93,19,5,19,0.00
2013-8-18,92.3,79.6,67.3,64.4,62.3,58.3,81,58,35,30.05,29.90,23,5,23,0.00
2013-8-19,94.9,81.6,67.7,63.2,62.0,60.3,81,54,34,29.99,29.85,26,4,26,0.00
2013-8-20,98.2,84.2,71.7,65.1,62.3,59.5,70,50,32,29.94,29.85,20,4,20,0.00
2013-8-21,97.1,83.1,67.0,65.8,59.3,56.1,75,47,27,30.00,29.90,20,4,20,0.00
2013-8-22,99.3,85.9,71.4,68.0,63.2,58.6,75,49,29,30.00,29.83,20,4,20,0.00
2013-8-23,101.8,87.7,71.9,67.1,64.0,57.8,72,48,26,29.94,29.81,18,4,18,0.00
2013-8-24,102.1,91.6,81.0,66.9,64.7,59.6,60,43,27,29.98,29.89,22,4,22,0.00
2013-8-25,99.6,86.9,73.3,69.6,65.2,60.3,76,51,31,30.07,29.96,18,3,18,0.00
2013-8-26,96.2,83.9,71.1,68.7,64.1,61.3,75,53,34,30.10,29.97,19,3,19,0.00
2013-8-27,91.8,81.4,67.4,69.2,65.1,59.4,79,59,44,30.03,29.91,18,4,20,0.00
2013-8-28,97.4,86.8,73.0,68.9,64.8,58.9,82,51,31,30.00,29.89,23,6,23,0.00
2013-8-29,101.3,89.3,71.8,62.4,60.0,56.6,68,40,24,30.00,29.86,21,5,21,0.00
2013-8-30,104.4,88.9,70.7,64.3,60.4,56.2,72,41,23,29.92,29.76,25,5,25,0.00
2013-8-31,106.0,90.3,72.8,62.9,57.9,53.6,62,36,19,29.82,29.68,17,4,17,0.00
2013-9-1,105.5,90.2,73.0,68.5,61.7,55.7,64,41,21,29.84,29.70,19,4,19,0.00
2013-9-2,96.5,86.5,71.0,72.2,64.6,57.0,77,50,33,29.95,29.81,25,6,25,0.00
2013-9-3,97.3,80.9,62.5,61.9,55.7,49.0,76,46,22,30.01,29.87,16,4,16,0.00
2013-9-4,98.0,82.0,61.3,63.3,55.4,39.5,77,44,14,30.04,29.91,24,3,24,0.00
2013-9-5,101.8,85.2,69.8,67.4,60.8,52.2,73,47,24,30.04,29.91,15,3,15,0.00
2013-9-6,102.4,86.6,71.0,66.1,61.5,59.0,68,45,26,30.01,29.85,17,2,17,0.00
2013-9-7,102.5,88.1,69.0,65.7,61.6,58.6,75,44,25,29.93,29.79,18,3,18,0.00
2013-9-8,99.5,88.4,69.3,66.8,60.0,53.4,75,41,25,29.90,29.76,23,4,23,0.00
2013-9-9,95.3,84.4,72.0,65.0,61.8,58.5,72,48,32,29.89,29.77,21,6,21,0.00
2013-9-10,93.8,82.9,72.2,71.7,65.4,61.6,74,57,38,30.00,29.85,29,6,29,0.10
2013-9-11,94.2,82.2,71.4,67.5,63.6,59.5,81,56,34,30.06,29.92,19,4,19,0.00
2013-9-12,96.3,80.4,64.9,65.2,60.9,57.8,82,54,30,30.04,29.88,17,3,17,0.00
2013-9-13,89.0,80.1,73.0,69.6,66.6,64.1,76,64,48,29.95,29.82,25,6,25,0.00
2013-9-14,92.4,83.2,71.5,69.6,66.5,64.6,81,59,41,29.93,29.80,15,6,20,0.00
2013-9-15,95.0,83.6,71.1,65.7,63.7,61.5,73,53,35,29.93,29.81,18,4,18,0.00
2013-9-16,93.3,79.7,70.8,69.4,65.9,63.6,90,65,40,30.00,29.85,26,5,26,0.20
2013-9-17,88.3,75.2,69.8,72.9,69.1,66.2,91,82,53,29.99,29.85,17,3,17,0.14
2013-9-18,93.3,82.7,74.0,69.9,64.7,59.3,77,57,34,29.88,29.72,26,6,26,0.00
2013-9-19,85.8,75.7,71.1,69.9,65.2,59.2,88,71,51,29.87,29.75,20,4,20,0.05
2013-9-20,71.6,67.3,58.6,67.9,60.6,52.9,89,80,62,29.97,29.78,22,7,22,0.19
2013-9-21,84.0,66.3,49.8,56.3,51.1,46.7,91,64,30,30.01,29.83,14,2,14,0.00
2013-9-22,86.3,68.2,51.4,57.0,51.3,48.3,92,60,28,29.86,29.70,18,3,18,0.00
2013-9-23,88.4,72.8,58.0,54.6,52.7,50.8,77,52,30,29.74,29.60,26,6,26,0.00
2013-9-24,90.0,75.0,58.6,54.5,49.2,42.3,75,45,20,29.92,29.74,17,4,17,0.00
2013-9-25,94.3,75.2,52.5,60.6,53.3,46.8,84,51,26,29.82,29.60,23,4,23,0.00
2013-9-26,95.6,81.8,69.7,62.2,59.2,52.8,70,49,28,29.71,29.61,30,9,30,0.00
2013-9-27,90.8,79.5,68.7,69.8,63.8,52.7,74,60,43,29.76,29.61,29,9,29,0.00
2013-9-28,80.0,69.4,54.9,70.7,55.9,44.3,90,65,33,30.06,29.66,26,8,26,0.78
2013-9-29,82.5,63.4,47.6,53.5,46.6,38.0,92,62,22,30.07,29.85,12,2,12,0.01
2013-9-30,89.0,71.0,56.0,59.9,53.4,48.7,79,56,34,29.87,29.65,21,5,21,0.00
2013-10-1,90.1,73.5,59.5,65.6,58.6,52.8,83,61,39,29.79,29.69,22,4,22,0.00
2013-10-2,89.5,77.8,67.3,70.2,65.0,60.2,84,66,49,29.81,29.67,26,6,26,0.00
2013-10-3,92.6,80.3,70.2,68.4,66.3,63.0,87,64,40,29.73,29.57,30,10,30,0.00
2013-10-4,91.3,81.4,66.2,69.1,66.3,61.4,86,61,46,29.75,29.58,33,11,33,0.45
2013-10-5,70.1,59.7,48.7,61.4,39.7,33.1,86,50,27,30.08,29.75,29,9,31,0.00
2013-10-6,79.1,59.2,43.1,42.7,36.8,30.2,82,49,18,30.15,29.99,22,4,22,0.00
2013-10-7,85.3,63.4,46.3,47.2,42.6,38.9,76,52,22,30.12,29.98,10,2,10,0.00
2013-10-8,86.1,68.5,50.3,47.3,42.6,38.6,69,42,22,30.00,29.82,19,4,19,0.00
2013-10-9,84.2,69.6,54.6,52.2,48.2,45.1,71,49,29,29.92,29.80,27,5,27,0.00
2013-10-10,85.7,72.9,60.6,62.6,57.5,51.2,77,60,42,29.88,29.66,33,8,33,0.00
2013-10-11,89.7,74.8,59.4,61.0,47.9,32.4,82,46,15,29.76,29.65,24,7,24,0.00
2013-10-12,79.2,65.2,52.6,50.7,47.0,38.6,71,53,35,30.06,29.74,19,5,19,0.00
2013-10-13,73.5,66.3,56.6,64.7,57.8,47.7,85,74,68,30.18,30.01,26,5,26,0.00
2013-10-14,79.4,71.7,67.4,68.1,65.7,63.5,90,81,67,30.03,29.73,17,5,18,0.00
2013-10-15,72.0,59.8,53.1,66.7,46.2,39.2,88,62,46,30.08,29.77,28,8,28,0.00
2013-10-16,57.7,51.6,40.5,43.3,38.2,34.2,80,61,47,30.16,30.04,20,5,20,0.00
2013-10-17,75.7,54.1,33.9,48.3,40.8,30.5,90,64,37,30.08,29.89,17,3,17,0.00
2013-10-18,56.5,48.0,37.9,53.6,42.3,33.9,90,81,67,30.20,29.85,29,7,29,0.09
2013-10-19,70.1,49.3,32.6,42.8,34.8,29.7,96,63,25,30.22,29.99,15,4,15,0.00
2013-10-20,77.4,59.2,42.4,54.2,45.1,35.9,81,61,39,30.00,29.67,24,5,24,0.00
2013-10-21,66.5,55.6,40.0,50.4,42.0,33.6,86,63,34,30.11,29.77,28,7,28,0.00
2013-10-22,81.1,57.3,35.8,43.3,37.8,31.5,87,55,20,30.13,29.96,25,4,25,0.00
2013-10-23,86.3,63.0,39.7,44.4,37.2,32.2,85,47,15,30.06,29.91,22,5,27,0.00
2013-10-24,67.8,55.9,42.8,45.2,40.7,34.5,88,59,38,30.28,30.00,22,5,22,0.00
2013-10-25,69.3,53.6,37.4,50.8,41.9,32.3,84,66,46,30.37,30.11,14,3,14,0.00
2013-10-26,76.3,62.9,53.9,60.3,53.4,47.6,89,73,44,30.12,29.95,21,5,21,0.02
2013-10-27,72.8,58.1,41.8,50.7,41.2,32.8,78,57,26,30.10,29.89,15,3,15,0.00
2013-10-28,77.0,64.1,54.2,64.3,58.3,49.6,92,82,65,29.96,29.82,20,4,20,0.00
2013-10-29,82.2,74.4,67.4,67.2,64.9,62.2,86,73,58,29.89,29.76,26,10,26,0.00
2013-10-30,80.6,73.6,62.7,67.7,65.6,58.5,87,76,58,29.83,29.61,41,9,41,0.55
2013-10-31,70.5,61.1,52.3,59.3,46.1,37.9,88,60,31,29.79,29.54,35,8,35,0.08
2013-11-1,72.6,57.1,40.5,48.3,40.2,33.6,89,57,25,30.12,29.71,27,6,27,0.00
2013-11-2,69.3,52.7,38.5,40.5,34.1,30.7,75,52,25,30.31,30.11,10,2,10,0.00
2013-11-3,66.6,56.5,46.1,44.2,37.0,33.4,64,49,34,30.11,29.80,32,10,32,0.00
2013-11-4,76.0,61.5,47.6,55.9,48.7,40.9,87,64,43,29.92,29.81,23,5,23,0.00
2013-11-5,75.0,63.5,50.0,62.6,57.6,44.0,90,82,65,30.01,29.74,26,8,26,0.30
2013-11-6,57.6,47.5,36.8,44.0,36.3,30.4,80,67,39,30.37,30.01,26,6,26,0.00
2013-11-7,68.2,48.5,30.6,40.7,32.5,27.8,91,60,25,30.50,30.30,15,3,15,0.00
2013-11-8,67.3,53.8,40.6,41.2,33.6,25.2,73,50,22,30.31,29.98,29,9,29,0.00
2013-11-9,70.2,56.5,44.7,50.1,44.6,37.9,84,66,44,30.14,29.96,18,4,18,0.00
2013-11-10,62.1,54.4,49.0,52.5,49.8,45.9,92,84,70,30.27,30.13,13,3,13,0.00
2013-11-11,70.4,59.1,45.1,57.2,53.0,38.7,92,81,62,30.39,30.08,32,7,32,0.00
2013-11-12,45.1,37.3,22.0,38.7,20.5,13.9,78,53,29,30.76,30.38,28,10,28,0.00
2013-11-13,53.8,35.1,14.9,22.5,14.5,10.6,87,50,18,30.71,30.27,19,4,19,0.00
2013-11-14,56.2,45.9,34.7,40.3,29.3,20.1,64,53,43,30.27,29.88,25,6,25,0.00
2013-11-15,70.8,54.4,32.4,49.3,37.6,27.6,85,56,33,29.92,29.66,19,5,19,0.00
2013-11-16,84.9,71.9,62.3,56.1,51.0,45.1,72,50,25,29.66,29.41,42,12,42,0.00
2013-11-17,76.9,65.2,50.4,55.0,41.5,29.0,78,46,22,30.01,29.50,24,6,24,0.00
2013-11-18,65.5,53.7,41.5,33.2,27.2,17.3,63,39,16,30.21,30.01,15,3,15,0.00
2013-11-19,68.1,58.5,49.7,43.5,38.9,32.9,57,48,39,30.10,29.81,27,7,27,0.00
2013-11-20,76.7,65.3,56.1,59.1,52.5,41.1,78,64,47,29.82,29.67,26,8,26,0.00
2013-11-21,77.3,55.0,32.3,62.3,46.6,23.2,85,74,48,30.38,29.76,36,11,36,0.00
2013-11-22,32.3,29.7,27.5,28.2,23.7,19.3,92,78,65,30.60,30.37,32,12,32,0.00
2013-11-23,38.5,34.7,31.2,26.8,23.4,17.5,77,64,45,30.68,30.56,21,10,23,0.01
2013-11-24,33.9,28.6,26.0,25.7,24.1,23.0,89,83,65,30.68,30.31,15,5,17,0.02
2013-11-25,36.6,32.9,29.4,32.6,29.4,25.7,89,87,84,30.31,30.17,13,4,13,0.03
2013-11-26,48.2,37.8,29.2,30.2,27.9,23.3,85,69,46,30.44,30.24,25,7,25,0.00
2013-11-27,46.9,34.0,20.9,26.2,22.8,17.1,87,66,39,30.49,30.27,15,3,15,0.01
2013-11-28,59.1,42.6,31.1,35.2,29.2,25.5,85,62,32,30.36,30.24,16,4,16,0.00
2013-11-29,60.9,45.5,30.0,37.1,32.0,24.3,83,61,36,30.40,30.21,27,5,27,0.00
2013-11-30,69.1,51.5,39.9,46.6,41.0,34.7,85,69,43,30.22,30.02,15,4,15,0.00
2013-12-1,63.9,48.3,35.6,46.7,40.0,31.0,92,75,49,30.05,29.88,13,2,13,0.00
2013-12-2,71.1,47.2,28.9,44.4,34.7,26.0,92,67,27,29.88,29.57,12,2,12,0.00
2013-12-3,81.0,56.2,36.8,39.5,32.7,26.3,78,47,14,29.57,29.41,18,4,18,0.00
2013-12-4,49.6,42.7,31.6,34.4,29.2,18.3,78,59,45,30.04,29.43,25,8,25,0.00
2013-12-5,31.6,24.3,19.7,18.5,13.5,8.7,85,65,46,30.31,30.04,31,10,31,0.00
2013-12-6,24.8,17.2,5.2,16.7,11.4,0.0,89,78,63,30.64,30.28,20,7,20,0.00
2013-12-7,19.2,11.9,1.7,11.9,4.5,-3.4,80,72,65,30.69,30.31,19,4,19,0.00
2013-12-8,37.1,25.4,17.2,27.3,19.2,11.6,85,77,66,30.32,29.97,23,5,23,0.03
2013-12-9,26.2,22.6,9.0,22.5,16.4,4.0,92,77,67,30.49,30.16,20,6,20,0.00
2013-12-10,41.6,23.6,5.0,28.2,16.0,0.7,92,73,57,30.51,30.21,18,5,18,0.00
2013-12-11,38.6,29.2,18.6,27.5,22.3,14.9,88,76,63,30.63,30.23,27,6,27,0.00
2013-12-12,41.5,30.6,16.9,33.5,24.1,13.4,89,77,61,30.64,30.19,16,3,16,0.01
2013-12-13,57.9,45.9,39.2,43.9,38.1,32.6,87,75,58,30.20,29.66,26,7,26,0.01
2013-12-14,50.2,38.0,29.6,35.2,26.5,22.8,82,65,36,30.31,29.79,27,9,27,0.00
2013-12-15,63.1,42.5,24.2,36.2,28.2,20.4,87,62,29,30.30,30.13,18,4,18,0.00
2013-12-16,69.4,44.5,25.6,36.6,28.9,21.5,87,59,23,30.17,30.07,16,2,16,0.00
2013-12-17,69.3,44.8,28.2,37.0,30.0,23.5,84,61,25,30.29,30.15,11,2,11,0.00
2013-12-18,69.8,48.0,26.7,43.2,34.1,22.9,89,63,32,30.23,29.80,27,6,27,0.00
2013-12-19,71.1,59.2,51.9,50.6,47.4,42.6,79,66,42,29.80,29.55,27,10,27,0.00
2013-12-20,55.8,35.7,30.2,48.4,28.3,19.1,90,75,60,29.95,29.61,32,7,32,0.01
2013-12-21,33.2,32.1,30.4,31.1,29.7,26.2,92,91,86,29.86,29.59,0,0,0,0.05
2013-12-22,38.3,30.1,24.7,30.1,25.2,21.1,88,82,70,30.38,29.86,12,1,14,0.02
2013-12-23,48.4,31.5,23.7,34.5,26.0,20.4,90,81,58,30.57,30.36,20,4,20,0.01
2013-12-24,53.1,35.5,24.5,41.3,29.7,22.0,91,80,62,30.55,30.09,23,6,23,0.00
2013-12-25,50.1,37.2,26.3,35.9,29.9,21.9,91,76,51,30.44,30.15,22,6,22,0.00
2013-12-26,56.7,36.9,21.3,34.6,25.8,18.2,90,68,34,30.43,30.27,16,3,16,0.00
2013-12-27,60.0,40.0,23.4,36.8,26.6,18.9,88,63,27,30.40,30.26,16,3,16,0.00
2013-12-28,56.7,43.5,31.0,44.5,35.0,25.0,87,72,54,30.26,29.86,23,5,23,0.00
2013-12-29,43.9,31.8,22.4,40.3,23.8,14.6,92,72,59,30.34,29.85,34,10,34,0.00
2013-12-30,47.2,28.3,14.0,24.1,17.5,10.2,87,66,39,30.42,30.26,10,2,10,0.00
2013-12-31,56.7,37.8,17.8,32.0,25.2,14.1,88,64,35,30.42,30.04,23,6,23,0.00
2014-1-1,59.4,42.3,26.8,35.5,29.2,19.0,80,62,35,30.34,29.83,30,10,30,0.00
2014-1-2,44.9,30.8,21.6,23.5,19.3,15.2,77,63,40,30.54,30.34,24,5,24,0.00